Location: Newark
(35.2672°N, 80.7344°W)
Time: 20:11:03
(UTC+00:00)

Vanguard 2 Rocket - Pass Details

Date: 23 January 2020
Orbit: 554 x 3327 km, 32.9° (Epoch: 22 February)

Event Time Altitude Azimuth Distance (km) Brightness Sun altitude
Rises 11:26:30 0° 252° (WSW) 2,897 - -12.7°
Reaches altitude 10° 11:28:27 10° 249° (WSW) 2,125 - -12.3°
Exits shadow 11:28:35 11° 249° (WSW) 2,079 8.3 -12.3°
Maximum altitude 11:33:12 65° 168° (SSE) 980 7.2 -11.4°
Drops below altitude 10° 11:41:00 10° 88° (E) 3,437 11.2 -9.9°
Sets 11:44:57 0° 86° (E) 4,878 12.1 -9.1°
